"Period start","avg(HW err(1)/warn(2) (#))","avg(Visibility (m))","avg(Weather code (#))","avg(Precip intensity (mm/h))","min(HW err(1)/warn(2) (#))","max(HW err(1)/warn(2) (#))","std(HW err(1)/warn(2) (#))","med(HW err(1)/warn(2) (#))","min(Visibility (m))","max(Visibility (m))","std(Visibility (m))","med(Visibility (m))","min(Weather code (#))","max(Weather code (#))","std(Weather code (#))","med(Weather code (#))","min(Precip intensity (mm/h))","max(Precip intensity (mm/h))","std(Precip intensity (mm/h))","med(Precip intensity (mm/h))"
2017-10-26 00:00:00,2,3855,77,0.07,2,2,0,2,2745,5861,906,3638,71,78,2,78,0.00,0.15,0.05,0.05
2017-10-26 00:10:00,2,3912,78,0.03,2,2,0,2,1885,5258,963,4103,77,78,0,78,0.00,0.10,0.03,0.00
2017-10-26 00:20:00,2,2889,78,0.01,2,2,0,2,1657,4125,825,2692,78,78,0,78,0.00,0.05,0.02,0.00
2017-10-26 00:30:00,2,3438,71,0.00,2,2,0,2,2400,5623,982,3162,10,78,20,78,0.00,0.00,0.00,0.00
2017-10-26 00:40:00,2,8036,10,0.00,2,2,0,2,4559,9846,1545,8689,10,10,0,10,0.00,0.00,0.00,0.00
2017-10-26 00:50:00,2,7596,10,0.00,2,2,0,2,4386,9267,1433,8020,10,10,0,10,0.00,0.00,0.00,0.00
2017-10-26 01:00:00,2,5917,10,0.00,2,2,0,2,3071,9642,2054,5760,10,10,0,10,0.00,0.00,0.00,0.00
2017-10-26 01:10:00,2,9251,10,0.00,2,2,0,2,5256,13372,2765,8943,10,10,0,10,0.00,0.00,0.00,0.00
2017-10-26 01:20:00,2,14035,77,0.01,2,2,0,2,10324,19158,3134,13106,71,78,3,78,0.00,0.05,0.02,0.00
2017-10-26 01:30:00,2,13054,75,0.04,2,2,0,2,6502,23197,5022,11633,71,78,3,78,0.00,0.15,0.04,0.05
2017-10-26 01:40:00,2,12993,78,0.00,2,2,0,2,6880,19431,3856,13604,77,78,0,78,0.00,0.00,0.00,0.00
2017-10-26 01:50:00,2,15404,78,0.02,2,2,0,2,12446,20726,2836,14204,78,78,0,78,0.00,0.05,0.02,0.00
2017-10-26 02:00:00,2,13179,78,0.05,2,2,0,2,8966,18316,2570,12746,78,78,0,78,0.00,0.15,0.04,0.05
2017-10-26 02:10:00,2,8642,78,0.12,2,2,0,2,7236,9777,734,8835,77,78,0,78,0.05,0.25,0.06,0.10
2017-10-26 02:20:00,2,7368,75,0.10,2,2,0,2,6452,7868,409,7408,71,78,3,77,0.05,0.25,0.06,0.08
2017-10-26 02:30:00,2,6076,75,0.20,2,2,0,2,4653,9019,1145,5688,71,77,3,77,0.10,0.35,0.08,0.20
2017-10-26 02:40:00,2,4630,75,0.15,2,2,0,2,2689,6039,1124,4646,71,77,3,77,0.10,0.25,0.05,0.12
2017-10-26 02:50:00,2,3489,78,0.13,2,2,0,2,3094,3756,211,3517,77,78,0,78,0.05,0.25,0.06,0.15
2017-10-26 03:00:00,2,3709,78,0.05,2,2,0,2,3087,4732,490,3634,78,78,0,78,0.05,0.05,0.00,0.05
2017-10-26 03:10:00,2,3166,78,0.02,2,2,0,2,2625,3753,388,3064,78,78,0,78,0.00,0.05,0.02,0.00
2017-10-26 03:20:00,2,3158,78,0.01,2,2,0,2,2324,3726,388,3238,78,78,0,78,0.00,0.05,0.02,0.00
2017-10-26 03:30:00,2,3549,78,0.01,2,2,0,2,2852,4357,498,3509,78,78,0,78,0.00,0.05,0.02,0.00
2017-10-26 03:40:00,2,3728,78,0.01,2,2,0,2,2703,4483,544,3882,78,78,0,78,0.00,0.05,0.02,0.00
2017-10-26 03:50:00,2,3046,78,0.07,2,2,0,2,2560,3980,401,2941,77,78,0,78,0.00,0.15,0.04,0.05
2017-10-26 04:00:00,2,2317,78,0.04,2,2,0,2,2019,2765,247,2288,78,78,0,78,0.00,0.10,0.03,0.05
2017-10-26 04:10:00,2,2559,78,0.07,2,2,0,2,1529,3423,621,2748,77,78,0,78,0.05,0.10,0.02,0.05
2017-10-26 04:20:00,2,3314,78,0.04,2,2,0,2,1616,4360,768,3457,77,78,0,78,0.00,0.05,0.02,0.05
2017-10-26 04:30:00,2,3298,78,0.07,2,2,0,2,2837,4685,495,3132,78,78,0,78,0.05,0.10,0.02,0.05
2017-10-26 04:40:00,2,3825,77,0.16,2,2,0,2,2904,4667,573,4022,77,78,0,77,0.05,0.20,0.05,0.17
2017-10-26 04:50:00,2,5929,78,0.07,2,2,0,2,3928,7453,951,5942,77,78,0,78,0.00,0.15,0.04,0.08
2017-10-26 05:00:00,2,6624,78,0.04,2,2,0,2,5517,7917,618,6490,78,78,0,78,0.00,0.05,0.02,0.05
2017-10-26 05:10:00,2,8638,78,0.01,2,2,0,2,5826,11641,1581,8795,78,78,0,78,0.00,0.05,0.02,0.00
2017-10-26 05:20:00,2,9400,78,0.00,2,2,0,2,6932,10854,1023,9582,78,78,0,78,0.00,0.00,0.00,0.00
2017-10-26 05:30:00,2,9668,78,0.00,2,2,0,2,8584,10845,720,9590,78,78,0,78,0.00,0.00,0.00,0.00
2017-10-26 05:40:00,2,11044,78,0.00,2,2,0,2,8366,13139,1533,11598,78,78,0,78,0.00,0.00,0.00,0.00
2017-10-26 05:50:00,2,7473,78,0.00,2,2,0,2,5657,9629,1465,7233,78,78,0,78,0.00,0.00,0.00,0.00
2017-10-26 06:00:00,2,8155,78,0.00,2,2,0,2,5236,10241,1423,8630,78,78,0,78,0.00,0.00,0.00,0.00
2017-10-26 06:10:00,2,10475,78,0.00,2,2,0,2,7262,12869,1719,10947,78,78,0,78,0.00,0.00,0.00,0.00
2017-10-26 06:20:00,2,9179,78,0.00,2,2,0,2,7644,10865,974,8986,78,78,0,78,0.00,0.00,0.00,0.00
2017-10-26 06:30:00,2,9157,78,0.00,2,2,0,2,7499,10802,1066,8908,78,78,0,78,0.00,0.00,0.00,0.00
2017-10-26 06:40:00,2,9588,77,0.01,2,2,0,2,7975,11562,962,9596,77,78,0,77,0.00,0.05,0.02,0.00
2017-10-26 06:50:00,2,10702,77,0.02,2,2,0,2,8821,12879,1258,10954,77,77,0,77,0.00,0.05,0.02,0.00
2017-10-26 07:00:00,2,21956,77,0.00,2,2,0,2,14127,31643,5046,20428,77,77,0,77,0.00,0.00,0.00,0.00
2017-10-26 07:10:00,2,28155,38,0.00,2,2,0,2,21679,38310,4899,27845,0,77,38,38,0.00,0.00,0.00,0.00
2017-10-26 07:20:00,2,29405,0,0.00,2,2,0,2,17773,40521,6871,30254,0,0,0,0,0.00,0.00,0.00,0.00
2017-10-26 07:30:00,2,20902,0,0.00,2,2,0,2,14009,28915,4918,20516,0,0,0,0,0.00,0.00,0.00,0.00
2017-10-26 07:40:00,2,15839,0,0.00,2,2,0,2,8394,23971,5114,17077,0,0,0,0,0.00,0.00,0.00,0.00
2017-10-26 07:50:00,2,11066,0,0.00,2,2,0,2,7970,14624,2213,11120,0,0,0,0,0.00,0.00,0.00,0.00
2017-10-26 08:00:00,2,11940,0,0.00,2,2,0,2,5573,17596,3433,12443,0,0,0,0,0.00,0.00,0.00,0.00
2017-10-26 08:10:00,2,5650,9,0.00,2,2,0,2,3030,7978,1586,5128,0,10,3,10,0.00,0.00,0.00,0.00
2017-10-26 08:20:00,2,5640,10,0.00,2,2,0,2,3216,8001,1309,5484,10,10,0,10,0.00,0.00,0.00,0.00
2017-10-26 08:30:00,2,5819,10,0.00,2,2,0,2,5143,7485,671,5601,10,10,0,10,0.00,0.00,0.00,0.00
2017-10-26 08:40:00,2,6502,10,0.00,2,2,0,2,3568,9055,1560,6468,10,10,0,10,0.00,0.00,0.00,0.00
2017-10-26 08:50:00,2,4140,10,0.00,2,2,0,2,2173,6603,1512,4386,10,10,0,10,0.00,0.00,0.00,0.00
2017-10-26 09:00:00,2,6617,10,0.00,2,2,0,2,4206,9737,1760,6062,10,10,0,10,0.00,0.00,0.00,0.00
2017-10-26 09:10:00,2,10492,10,0.00,2,2,0,2,6710,14353,2155,10695,10,10,0,10,0.00,0.00,0.00,0.00
2017-10-26 09:20:00,2,13450,5,0.00,2,2,0,2,9058,21350,3533,13378,0,10,5,5,0.00,0.00,0.00,0.00
2017-10-26 09:30:00,2,28559,0,0.00,2,2,0,2,16355,42913,9506,26678,0,0,0,0,0.00,0.00,0.00,0.00
2017-10-26 09:40:00,2,43867,0,0.00,2,2,0,2,24056,50000,7909,47375,0,0,0,0,0.00,0.00,0.00,0.00
2017-10-26 09:50:00,2,47736,0,0.00,2,2,0,2,40423,50000,3608,50000,0,0,0,0,0.00,0.00,0.00,0.00
2017-10-26 10:00:00,2,31556,0,0.00,2,2,0,2,10826,50000,16725,32225,0,0,0,0,0.00,0.00,0.00,0.00
2017-10-26 10:10:00,2,15351,0,0.00,2,2,0,2,9327,23156,4232,14396,0,0,0,0,0.00,0.00,0.00,0.00
2017-10-26 10:20:00,2,11908,0,0.00,2,2,0,2,6711,18838,3609,11330,0,0,0,0,0.00,0.00,0.00,0.00
2017-10-26 10:30:00,2,13288,6,0.00,2,2,0,2,7993,26056,5261,12616,0,10,5,10,0.00,0.00,0.00,0.00
2017-10-26 10:40:00,2,34805,0,0.00,2,2,0,2,12942,50000,14055,37817,0,0,0,0,0.00,0.00,0.00,0.00
2017-10-26 10:50:00,2,50000,0,0.00,2,2,0,2,50000,50000,0,50000,0,0,0,0,0.00,0.00,0.00,0.00
2017-10-26 11:00:00,2,46033,0,0.00,2,2,0,2,39735,50000,3585,46732,0,0,0,0,0.00,0.00,0.00,0.00
2017-10-26 11:10:00,2,46968,0,0.00,2,2,0,2,35945,50000,4821,50000,0,0,0,0,0.00,0.00,0.00,0.00
2017-10-26 11:20:00,2,22246,0,0.00,2,2,0,2,11835,50000,11390,16913,0,0,0,0,0.00,0.00,0.00,0.00
2017-10-26 11:30:00,2,22469,0,0.00,2,2,0,2,10836,40299,9080,20054,0,0,0,0,0.00,0.00,0.00,0.00
2017-10-26 11:40:00,2,48367,0,0.00,2,2,0,2,43471,50000,2112,49624,0,0,0,0,0.00,0.00,0.00,0.00
2017-10-26 11:50:00,2,50000,0,0.00,2,2,0,2,50000,50000,0,50000,0,0,0,0,0.00,0.00,0.00,0.00
2017-10-26 12:00:00,2,49938,0,0.00,2,2,0,2,49385,50000,184,50000,0,0,0,0,0.00,0.00,0.00,0.00
2017-10-26 12:10:00,2,50000,0,0.00,2,2,0,2,50000,50000,0,50000,0,0,0,0,0.00,0.00,0.00,0.00
2017-10-26 12:20:00,2,50000,0,0.00,2,2,0,2,50000,50000,0,50000,0,0,0,0,0.00,0.00,0.00,0.00
2017-10-26 12:30:00,2,50000,0,0.00,2,2,0,2,50000,50000,0,50000,0,0,0,0,0.00,0.00,0.00,0.00
2017-10-26 12:40:00,2,50000,0,0.00,2,2,0,2,50000,50000,0,50000,0,0,0,0,0.00,0.00,0.00,0.00
2017-10-26 12:50:00,2,50000,0,0.00,2,2,0,2,50000,50000,0,50000,0,0,0,0,0.00,0.00,0.00,0.00
2017-10-26 13:00:00,2,49407,0,0.00,2,2,0,2,46223,50000,1157,50000,0,0,0,0,0.00,0.00,0.00,0.00
2017-10-26 13:10:00,2,49671,0,0.00,2,2,0,2,47117,50000,860,50000,0,0,0,0,0.00,0.00,0.00,0.00
2017-10-26 13:20:00,2,49932,0,0.00,2,2,0,2,49319,50000,204,50000,0,0,0,0,0.00,0.00,0.00,0.00
2017-10-26 13:30:00,2,49572,0,0.00,2,2,0,2,45721,50000,1284,50000,0,0,0,0,0.00,0.00,0.00,0.00
2017-10-26 13:40:00,2,48749,0,0.00,2,2,0,2,44335,50000,1711,49464,0,0,0,0,0.00,0.00,0.00,0.00
2017-10-26 13:50:00,2,49744,0,0.00,2,2,0,2,47444,50000,767,50000,0,0,0,0,0.00,0.00,0.00,0.00
2017-10-26 14:00:00,2,49903,0,0.00,2,2,0,2,49032,50000,290,50000,0,0,0,0,0.00,0.00,0.00,0.00
2017-10-26 14:10:00,2,47176,0,0.00,2,2,0,2,37662,50000,4398,50000,0,0,0,0,0.00,0.00,0.00,0.00
2017-10-26 14:20:00,2,47964,0,0.00,2,2,0,2,41000,50000,3440,50000,0,0,0,0,0.00,0.00,0.00,0.00
2017-10-26 14:30:00,2,30167,0,0.00,2,2,0,2,15618,46108,10169,27868,0,0,0,0,0.00,0.00,0.00,0.00
2017-10-26 14:40:00,2,29612,0,0.00,2,2,0,2,17940,46721,9032,28158,0,0,0,0,0.00,0.00,0.00,0.00
2017-10-26 14:50:00,2,23155,0,0.00,2,2,0,2,15044,33250,5067,23365,0,0,0,0,0.00,0.00,0.00,0.00
2017-10-26 15:00:00,2,29002,0,0.00,2,2,0,2,15178,43053,7696,29508,0,0,0,0,0.00,0.00,0.00,0.00
2017-10-26 15:10:00,2,31379,0,0.00,2,2,0,2,20809,41866,5986,33206,0,0,0,0,0.00,0.00,0.00,0.00
2017-10-26 15:20:00,2,27138,0,0.00,2,2,0,2,13646,39464,7879,27834,0,0,0,0,0.00,0.00,0.00,0.00
2017-10-26 15:30:00,2,43194,0,0.00,2,2,0,2,22802,50000,10510,50000,0,0,0,0,0.00,0.00,0.00,0.00
2017-10-26 15:40:00,2,49912,0,0.00,2,2,0,2,49121,50000,264,50000,0,0,0,0,0.00,0.00,0.00,0.00
2017-10-26 15:50:00,2,49976,0,0.00,2,2,0,2,49755,50000,74,50000,0,0,0,0,0.00,0.00,0.00,0.00
2017-10-26 16:00:00,2,50000,0,0.00,2,2,0,2,50000,50000,0,50000,0,0,0,0,0.00,0.00,0.00,0.00
2017-10-26 16:10:00,2,50000,0,0.00,2,2,0,2,50000,50000,0,50000,0,0,0,0,0.00,0.00,0.00,0.00
2017-10-26 16:20:00,2,49698,0,0.00,2,2,0,2,46978,50000,907,50000,0,0,0,0,0.00,0.00,0.00,0.00
2017-10-26 16:30:00,2,50000,0,0.00,2,2,0,2,50000,50000,0,50000,0,0,0,0,0.00,0.00,0.00,0.00
2017-10-26 16:40:00,2,42280,0,0.00,2,2,0,2,33059,50000,6228,43680,0,0,0,0,0.00,0.00,0.00,0.00
2017-10-26 16:50:00,2,39688,0,0.00,2,2,0,2,25623,50000,10052,43874,0,0,0,0,0.00,0.00,0.00,0.00
2017-10-26 17:00:00,2,47495,0,0.00,2,2,0,2,35754,50000,4458,50000,0,0,0,0,0.00,0.00,0.00,0.00
2017-10-26 17:10:00,2,39152,0,0.00,2,2,0,2,32442,42983,3140,39972,0,0,0,0,0.00,0.00,0.00,0.00
2017-10-26 17:20:00,2,22555,36,0.01,2,2,0,2,10120,41516,10779,18240,0,71,36,36,0.00,0.05,0.02,0.00
2017-10-26 17:30:00,2,38858,62,0.00,2,2,0,2,26009,50000,8703,39084,0,78,31,78,0.00,0.00,0.00,0.00
2017-10-26 17:40:00,2,49149,0,0.00,2,2,0,2,45692,50000,1433,50000,0,0,0,0,0.00,0.00,0.00,0.00
2017-10-26 17:50:00,2,50000,0,0.00,2,2,0,2,50000,50000,0,50000,0,0,0,0,0.00,0.00,0.00,0.00
2017-10-26 18:00:00,2,50000,0,0.00,2,2,0,2,50000,50000,0,50000,0,0,0,0,0.00,0.00,0.00,0.00
2017-10-26 18:10:00,2,50000,0,0.00,2,2,0,2,50000,50000,0,50000,0,0,0,0,0.00,0.00,0.00,0.00
2017-10-26 18:20:00,2,50000,0,0.00,2,2,0,2,50000,50000,0,50000,0,0,0,0,0.00,0.00,0.00,0.00
2017-10-26 18:30:00,2,50000,0,0.00,2,2,0,2,50000,50000,0,50000,0,0,0,0,0.00,0.00,0.00,0.00
2017-10-26 18:40:00,2,50000,0,0.00,2,2,0,2,50000,50000,0,50000,0,0,0,0,0.00,0.00,0.00,0.00
2017-10-26 18:50:00,2,50000,0,0.00,2,2,0,2,50000,50000,0,50000,0,0,0,0,0.00,0.00,0.00,0.00
2017-10-26 19:00:00,2,50000,0,0.00,2,2,0,2,50000,50000,0,50000,0,0,0,0,0.00,0.00,0.00,0.00
2017-10-26 19:10:00,2,50000,0,0.00,2,2,0,2,50000,50000,0,50000,0,0,0,0,0.00,0.00,0.00,0.00
2017-10-26 19:20:00,2,17074,64,0.54,2,2,0,2,4461,37174,11638,10278,0,71,21,71,0.00,1.25,0.43,0.62
2017-10-26 19:30:00,2,4110,71,2.47,2,2,0,2,3434,5088,521,3938,71,71,0,71,1.85,3.25,0.42,2.40
2017-10-26 19:40:00,2,3535,71,2.97,2,2,0,2,2636,4369,482,3566,71,71,0,71,2.10,3.80,0.49,2.98
2017-10-26 19:50:00,2,3570,71,3.20,2,2,0,2,2569,4413,583,3710,71,71,0,71,2.45,3.80,0.42,3.20
2017-10-26 20:00:00,2,3153,71,3.29,2,2,0,2,2829,3484,237,3138,71,71,0,71,2.20,4.85,0.76,3.15
2017-10-26 20:10:00,2,2910,71,3.33,2,2,0,2,2458,3360,280,2940,71,71,0,71,2.60,5.40,0.81,3.10
2017-10-26 20:20:00,2,3061,71,3.55,2,2,0,2,2533,3456,287,3118,71,71,0,71,2.95,4.40,0.43,3.60
2017-10-26 20:30:00,2,3586,71,2.66,2,2,0,2,2997,4285,327,3662,71,71,0,71,1.65,3.90,0.55,2.58
2017-10-26 20:40:00,2,4740,71,1.43,2,2,0,2,3633,6338,670,4768,71,71,0,71,0.65,2.15,0.47,1.32
2017-10-26 20:50:00,2,5118,71,1.31,2,2,0,2,4051,6271,670,5280,71,71,0,71,0.70,2.50,0.48,1.20
2017-10-26 21:00:00,2,3274,71,2.51,2,2,0,2,2498,4141,488,3203,71,71,0,71,1.85,3.65,0.51,2.50
2017-10-26 21:10:00,2,3154,71,2.42,2,2,0,2,2544,4153,416,3142,71,71,0,71,1.55,3.25,0.55,2.43
2017-10-26 21:20:00,2,5211,71,1.35,2,2,0,2,3339,7868,1495,4798,71,71,0,71,0.45,2.20,0.45,1.30
2017-10-26 21:30:00,2,5624,71,1.20,2,2,0,2,3812,7553,1316,5227,71,71,0,71,0.35,2.30,0.52,1.25
2017-10-26 21:40:00,2,3121,71,2.40,2,2,0,2,2620,3842,340,3116,71,71,0,71,1.75,3.25,0.47,2.50
2017-10-26 21:50:00,2,2874,71,3.19,2,2,0,2,2353,3446,333,2827,71,71,0,71,2.45,4.70,0.67,3.17
2017-10-26 22:00:00,2,2843,71,2.77,2,2,0,2,2219,4126,574,2675,71,71,0,71,1.05,4.10,0.93,2.90
2017-10-26 22:10:00,2,3828,71,1.53,2,2,0,2,3097,4482,483,3887,71,71,0,71,0.90,2.50,0.50,1.43
2017-10-26 22:20:00,2,4534,71,1.46,2,2,0,2,3043,6328,1113,4166,71,71,0,71,0.85,2.40,0.52,1.33
2017-10-26 22:30:00,2,6700,71,0.82,2,2,0,2,5563,7659,656,6847,71,71,0,71,0.45,1.10,0.23,0.90
2017-10-26 22:40:00,2,4635,71,1.52,2,2,0,2,3763,5786,555,4682,71,71,0,71,0.80,2.30,0.37,1.48
2017-10-26 22:50:00,2,5998,71,1.33,2,2,0,2,4090,9148,1550,5894,71,71,0,71,0.25,2.65,0.68,1.12
2017-10-26 23:00:00,2,8778,71,0.70,2,2,0,2,4864,15328,2887,7855,71,71,0,71,0.15,1.50,0.40,0.70
2017-10-26 23:10:00,2,16937,71,0.11,2,2,0,2,12439,20527,2668,16665,71,71,0,71,0.05,0.40,0.10,0.08
2017-10-26 23:20:00,2,19824,71,0.07,2,2,0,2,14907,28173,4194,18837,71,71,0,71,0.00,0.10,0.03,0.05
2017-10-26 23:30:00,2,25088,75,0.08,2,2,0,2,20407,31563,3678,24094,71,77,3,77,0.05,0.15,0.03,0.08
2017-10-26 23:40:00,2,39256,76,0.03,2,2,0,2,30712,47550,5592,40406,71,78,3,78,0.00,0.10,0.03,0.00
2017-10-26 23:50:00,2,18736,71,0.20,2,2,0,2,12374,25671,4024,19370,71,71,0,71,0.05,0.55,0.15,0.15
